Location: Dover
(48.8500°N, 53.9833°W)
Time: 06:32:05
(UTC+00:00)

SJ-12 - Pass Details

Date: 14 November 2025
Orbit: 517 x 528 km, 97.8° (Epoch: 10 December)

Event Time Altitude Azimuth Distance (km) Brightness Sun altitude
Rises 21:03:53 0° 164° (SSE) 2,647 7.3 -11.1°
Reaches altitude 10° 21:05:58 10° 165° (SSE) 1,761 6.4 -11.5°
Maximum altitude 21:09:46 89° 81° (E) 530 3.7 -12.1°
Drops below altitude 10° 21:13:36 10° 347° (NNW) 1,768 6.4 -12.7°
Sets 21:15:42 0° 347° (NNW) 2,660 7.3 -13.0°
